FENGYUN 1C DEB, 30758

Orbit data source: Space-Track

FENGYUN 1C DEB, 30758 is space debris in SSO originally from a launch on Mon, 10 May 1999 UTC launched from the Taiyaun Space Center, China (TSC). Fengyun 1C debris stems from the Chinese weather satellite Fengyun-1C, which was intentionally destroyed by a Chinese anti-satellite missile in 2007. This event dramatically increased the amount of space debris, with thousands of trackable fragments posing hazards to satellites and human spaceflight. The Fengyun 1C debris cloud has become a focal point in discussions about space sustainability and the need for international regulations to prevent the creation of new debris.

Loading next visibility...
Identifier
30758, 1999-025ATU
Orbit
SSO
Country
Flag of CNCN / PRC
Related business
Manufacturer
Unknown
Mission
Spacecraft
Bus & Motor
Unknown
Mass
Unknown
Launch date (UTC)
1999-05-10 (27 years ago)
Launch vehicle
Unknown
Launch site
Taiyaun Space Center, China (TSC)
Object type
Payload
Rocket body
Debris
Shape & HBR
Unknown shape, 0.1 m
Radar Cross Section
Medium (>0.1 m² and <1 m²)

Expand to show TLE details & history
Last TLE update: 11 hours ago

TLE from 11 hours ago
0 FENGYUN 1C DEB
1 30758U 99025ATU 26255.31086309  .00001102  00000-0  55527-3 0  9999
2 30758  99.0403  23.4091 0038390 305.6976  83.6927 14.18163651  3653
Epoch: 2026-09-12T07:27Z
TLE epoch observation values (Epoch: 2026-09-12T07:27:38.570Z)
Latitude
29.47022°
Longitude
-84.95428°
Altitude
832.286 km
Speed
7.441 km/s
True Right ascension
01h 13m 06s
True Declination
29° 19' 29"
Sunlit
Object was in full shadow at epoch
Visualization orbit readout
Latitude
Unknown
Longitude
Unknown
Altitude
Unknown
Speed
Unknown
Apparent Right ascension
Unknown
Apparent Declination
Unknown
Sunlit
N/A
Visualization observer readout
Local Sidereal Time
10:37:59
Azimuth
Unknown
Elevation
Unknown
Doppler factor
Unknown
Orbital elements
Apogee altitude
856.414 km
Perigee altitude
801.08 km
Semi-major axis
7,206.884 km
Eccentricity
0.00384
Inclination
99.0403°
RAAN
23.4091°
Arg. of periapsis
305.6976°
True anomaly
84.13018°
Mean anomaly
83.6927°
Eccentric anomaly
83.91142°
Mean motion
3.5475 °/min
Orbital period
101.48 mins
BSTAR
0.00055527
Loading maneuver chart data...
Computing Atmospheric mass density...
Loading historical data...
Loading historical data...
Loading historical data...
Loading historical data...
Loading historical data...
Loading historical data...
Loading historical data...

Documentation

Showing up to 5 results
|